Location: Lower Kingswood
(51.2667°N, 0.2167°W)
Time: 11:49:10
(UTC+00:00)

ALOS - Pass Details

Date: 26 September 2023
Orbit: 676 x 679 km, 98.0° (Epoch: 29 November)

Event Time Altitude Azimuth Distance (km) Brightness Sun altitude
Rises 02:57:40 0° 15° (NNE) 3,057 6.4 -26.6°
Reaches altitude 10° 02:59:56 10° 18° (NNE) 2,137 5.5 -26.3°
Maximum altitude 03:04:36 71° 103° (ESE) 725 2.4 -25.7°
Enters shadow 03:04:56 68° 135° (SE) 739 2.3 -25.6°
